This is the latest recevied weather packets stored in our database for station/object N5CSU. If no packets are shown the sender has not sent any weather packets the latest 10 day(s).
| Time | Temp. | Humidity | Pressure | Rain* | Wind** | Luminosity | Snow |
|---|---|---|---|---|---|---|---|
| 1778024370 | 28.89° C | 73% | 1004.1 hPa | 0 mm | - | 6 W/m² | - |
| 1778024067 | 28.89° C | 74% | 1004.2 hPa | 0 mm | - | 7 W/m² | - |
| 1778023765 | 28.89° C | 73% | 1004.2 hPa | 0 mm | - | 6 W/m² | - |
| 1778023463 | 29.44° C | 72% | 1004.1 hPa | 0 mm | - | 6 W/m² | - |
| 1778023159 | 29.44° C | 71% | 1004 hPa | 0 mm | - | 9 W/m² | - |
| 1778022857 | 29.44° C | 71% | 1004.3 hPa | 0 mm | - | 9 W/m² | - |
| 1778022555 | 30° C | 70% | 1004.3 hPa | 0 mm | - | 9 W/m² | - |
| 1778022252 | 30° C | 69% | 1004 hPa | 0 mm | - | 6 W/m² | - |
| 1778021948 | 30° C | 68% | 1004 hPa | 0 mm | - | 6 W/m² | - |
| 1778021646 | 30.56° C | 69% | 1003.7 hPa | 0 mm | - | 7 W/m² | - |
| 1778021346 | 30.56° C | 68% | 1003.8 hPa | 0 mm | - | 9 W/m² | - |
| 1778021044 | 30.56° C | 69% | 1003.8 hPa | 0 mm | - | 11 W/m² | - |
| 1778020741 | 30° C | 69% | 1003.9 hPa | 0 mm | - | 10 W/m² | - |
| 1778020438 | 30.56° C | 68% | 1003.8 hPa | 0 mm | - | 7 W/m² | - |
| 1778020133 | 30.56° C | 68% | 1003.6 hPa | 0 mm | - | 11 W/m² | - |
| 1778019830 | 30.56° C | 68% | 1003.7 hPa | 0 mm | - | 13 W/m² | - |
| 1778019527 | 30.56° C | 68% | 1003.7 hPa | 0 mm | - | 11 W/m² | - |
| 1778019224 | 30.56° C | 66% | 1003.8 hPa | 0 mm | - | 11 W/m² | - |
| 1778018921 | 30.56° C | 63% | 1003.7 hPa | 0 mm | - | 12 W/m² | - |
| 1778018617 | 30.56° C | 65% | 1003.7 hPa | 0 mm | - | 10 W/m² | - |
| 1778018316 | 30.56° C | 67% | 1003.5 hPa | 0 mm | - | 12 W/m² | - |
| 1778018013 | 30.56° C | 65% | 1003.8 hPa | 0 mm | - | 13 W/m² | - |
| 1778017711 | 30.56° C | 67% | 1003.8 hPa | 0 mm | - | 13 W/m² | - |
| 1778017408 | 30.56° C | 66% | 1003.8 hPa | 0 mm | - | 16 W/m² | - |
| 1778017105 | 30.56° C | 66% | 1003.8 hPa | 0 mm | - | 19 W/m² | - |
* Rain latest hour (hover to see other rain measurements)
** Current wind speed in m/s (hover to see current wind gust speed)